Regional Weather Roundup
Issued by NWS Kansas City/Pleasant Hill, MO

Home | Current Version | Previous Version | Text Only | Print | Product List | Glossary On
Versions: 1 2 3 4 5 6 7 8 9 10 11 12 13 14 15 16 17 18 19 20 21 22 23 24 25 26 27 28 29 30 31 32 33 34 35 36 37 38 39 40 41 42 43 44 45 46 47 48
000
ASUS43 KEAX 031610
RWREAX

WEATHER ROUNDUP FOR EASTERN KANSAS AND NORTHWEST MISSOURI
NATIONAL WEATHER SERVICE KANSAS CITY/PLEASANT HILL MO
1100 AM CDT THU SEP 03 2015

KSZ040-057-103>105-MOZ028-029-037-043-031700-
...KANSAS CITY METROPOLITAN AREA...

CITY           SKY/WX    TMP DP  RH WIND       PRES   REMARKS
K.C. INTL      PTSUNNY   85  69  58 S10       29.96F
K.C. DOWNTOWN  MOSUNNY   87  68  52 S9        29.95S HX  90
LEES SUMMIT      N/A     84  68  58 SW12      29.99S
OLATHE - IXD   MOSUNNY   84  69  60 S12       29.99R
OLATHE - OJC   MOSUNNY   81  69  67 S12       29.98S
LAWRENCE       MOSUNNY   85  67  54 SW12      29.95F

$$

MOZ001>008-011>017-020>025-030>033-038>040-044>046-053-054-031700-
...NORTHERN AND CENTRAL MISSOURI...

CITY           SKY/WX    TMP DP  RH WIND       PRES   REMARKS
ST. JOSEPH     MOSUNNY   80  70  71 S10       29.93S
MOSBY          SUNNY     82  68  61 S8        29.97R
WARRENSBURG    SUNNY     82  68  61 S7        30.00S
WHITEMAN AFB   MOSUNNY   86  67  53 SW12      29.99S
CLINTON        SUNNY     84  70  61 SW8       30.01S
SEDALIA          N/A     87  68  52 SW10      30.02S HX  90
WARSAW         NOT AVBL
CHILLICOTHE      N/A     86  70  58 SW7       29.97S HX  90
KIRKSVILLE     LGT RAIN  85  70  60 S8        30.00S

$$

MOZ041-047>049-056>058-063>065-088>090-097-031700-
...EASTERN AND SOUTHERN MISSOURI...

CITY           SKY/WX    TMP DP  RH WIND       PRES   REMARKS
ST. LOUIS INTL MOSUNNY   88  69  53 SW7       30.02F HX  92
SPIRIT OF STL  MOSUNNY   86  71  60 SW6       30.01S HX  91
COLUMBIA       MOSUNNY   84  71  65 SW8       30.02S
JEFFERSON CITY MOSUNNY   79  68  69 S6        30.01S
ROLLA          PTSUNNY   85  68  56 SW8       30.03F
OSAGE BEACH    MOSUNNY   84  68  58 S6        30.03F
SPRINGFIELD    SUNNY     83  68  60 SW7       30.04S
BRANSON        SUNNY     84  70  61 CALM      30.07S
JOPLIN         SUNNY     84  69  60 SW12      30.03S
WEST PLAINS    SUNNY     83  68  60 S7        30.08S

$$

IAZ060-094-KSZ022-034>040-054-083-096-NEZ052-066-093-031700-
...KANSAS...SOUTHEAST NEBRASKA AND IOWA...

CITY           SKY/WX    TMP DP  RH WIND       PRES   REMARKS
TOPEKA         MOSUNNY   84  67  56 S14       29.94S
MANHATTAN      MOSUNNY   87  65  47 S15G23    29.90S
EMPORIA        SUNNY     86  65  49 SW18G26   29.96S
CHANUTE        SUNNY     83  69  62 S14       30.00R
WICHITA        PTSUNNY   85  65  51 S21       29.94S
OMAHA          MOSUNNY   82  69  64 S13       29.87S
LINCOLN        SUNNY     85  66  53 S13       29.85F
FALLS CITY     SUNNY     86  68  54 S13       29.90S
LAMONI         MOSUNNY   80  70  71 S8        29.96R
DES MOINES     PTSUNNY   81  69  67 S12       29.93R

$$




USA.gov is the U.S. government's official web portal to all federal, state and local government web resources and services.